When you browse on this site, cookies collect data to enhance your experience and personalize the content and advertising you see.
Visit our Privacy Policy to learn more. By continuing to use the site, you agree to this use of cookies and data.
  • In Österreich
  • Länderverzeichnis
  • Für 7 Tage
  • Wassertemperatur
  • Satellitenkarten
  • Wetterkarte
  • News
  • Widgets
  • user-avatar
    Anmelden

    Stündliche Wetter Sankt Pölten

    Heute, 17 Juli, Mittwoch

    Zeit Temperatur Niederschläge Wind Luftdruck Luftfeuchtigkeit
    00:00 +16°C° 0 mm 1 m/S 735 mmHg 89%
    01:00 +15°C° 0 mm 1 m/S 735 mmHg 91%
    02:00 +14°C° 0 mm 0 m/S 735 mmHg 92%
    03:00 +13°C° 0 mm 0 m/S 735 mmHg 93%
    04:00 +13°C° 0 mm 0 m/S 735 mmHg 94%
    05:00 +15°C° 0 mm 0 m/S 735 mmHg 89%
    06:00 +18°C° 0 mm 1 m/S 735 mmHg 84%
    07:00 +20°C° 0 mm 1 m/S 735 mmHg 78%
    08:00 +21°C° 0 mm 1 m/S 735 mmHg 72%
    09:00 +23°C° 0 mm 2 m/S 735 mmHg 66%
    10:00 +24°C° 0 mm 2 m/S 735 mmHg 61%
    11:00 +25°C° 0 mm 2 m/S 734 mmHg 57%
    12:00 +26°C° 0 mm 2 m/S 734 mmHg 53%
    13:00 +27°C° 0 mm 2 m/S 734 mmHg 49%
    14:00 +27°C° 0.3 mm 2 m/S 734 mmHg 52%
    15:00 +26°C° 0.3 mm 2 m/S 734 mmHg 54%
    16:00 +26°C° 0.3 mm 2 m/S 733 mmHg 57%
    17:00 +25°C° 0.2 mm 2 m/S 733 mmHg 67%
    18:00 +23°C° 0.2 mm 1 m/S 733 mmHg 77%
    19:00 +21°C° 0.2 mm 1 m/S 733 mmHg 88%
    20:00 +20°C° 0.1 mm 1 m/S 733 mmHg 89%
    21:00 +19°C° 0.1 mm 1 m/S 733 mmHg 91%
    22:00 +16°C° 0.1 mm 0 m/S 734 mmHg 93%
    23:00 +15°C° 0.2 mm 0 m/S 734 mmHg 93%

    Morgen, 18 Juli, Donnerstag

    Zeit Temperatur Niederschläge Wind Luftdruck Luftfeuchtigkeit
    00:00 +15°C° 0.2 mm 0 m/S 734 mmHg 93%
    01:00 +14°C° 0.2 mm 0 m/S 733 mmHg 93%
    02:00 +14°C° 0.1 mm 0 m/S 733 mmHg 93%
    03:00 +14°C° 0.1 mm 0 m/S 733 mmHg 94%
    04:00 +13°C° 0.1 mm 0 m/S 733 mmHg 94%
    05:00 +15°C° 0 mm 0 m/S 733 mmHg 92%
    06:00 +16°C° 0 mm 0 m/S 734 mmHg 90%
    07:00 +17°C° 0 mm 0 m/S 734 mmHg 89%
    08:00 +21°C° 0.6 mm 1 m/S 734 mmHg 85%
    09:00 +22°C° 0.6 mm 1 m/S 734 mmHg 81%
    10:00 +23°C° 0.6 mm 1 m/S 734 mmHg 78%
    11:00 +25°C° 0.3 mm 1 m/S 734 mmHg 68%
    12:00 +26°C° 0.3 mm 2 m/S 734 mmHg 58%
    13:00 +27°C° 0.3 mm 2 m/S 733 mmHg 48%
    14:00 +27°C° 0.1 mm 2 m/S 733 mmHg 49%
    15:00 +27°C° 0.1 mm 2 m/S 733 mmHg 50%
    16:00 +27°C° 0.1 mm 2 m/S 733 mmHg 51%
    17:00 +25°C° 0.1 mm 1 m/S 733 mmHg 59%
    18:00 +23°C° 0.1 mm 1 m/S 733 mmHg 68%
    19:00 +20°C° 0.1 mm 0 m/S 733 mmHg 76%
    20:00 +19°C° 0 mm 0 m/S 734 mmHg 77%
    21:00 +20°C° 0 mm 1 m/S 734 mmHg 79%
    22:00 +19°C° 0 mm 1 m/S 734 mmHg 80%
    23:00 +18°C° 0 mm 1 m/S 734 mmHg 81%

    übermorgen, 19 Juli, Freitag

    Zeit Temperatur Niederschläge Wind Luftdruck Luftfeuchtigkeit
    00:00 +18°C° 0 mm 1 m/S 734 mmHg 81%
    01:00 +16°C° 0 mm 1 m/S 734 mmHg 82%
    02:00 +16°C° 0 mm 1 m/S 735 mmHg 82%
    03:00 +16°C° 0 mm 1 m/S 735 mmHg 82%
    04:00 +16°C° 0 mm 1 m/S 735 mmHg 82%
    05:00 +18°C° 0 mm 1 m/S 735 mmHg 79%
    06:00 +20°C° 0 mm 1 m/S 735 mmHg 77%
    07:00 +21°C° 0 mm 1 m/S 736 mmHg 75%
    08:00 +21°C° 0.1 mm 2 m/S 736 mmHg 70%
    09:00 +24°C° 0.1 mm 2 m/S 736 mmHg 66%
    10:00 +25°C° 0.1 mm 3 m/S 736 mmHg 62%
    11:00 +26°C° 0.1 mm 2 m/S 736 mmHg 57%
    12:00 +27°C° 0.1 mm 2 m/S 735 mmHg 52%
    13:00 +28°C° 0.1 mm 2 m/S 735 mmHg 47%
    14:00 +28°C° 0.1 mm 2 m/S 735 mmHg 48%
    15:00 +28°C° 0.1 mm 1 m/S 735 mmHg 49%
    16:00 +26°C° 0.1 mm 0 m/S 735 mmHg 50%
    17:00 +25°C° 0.1 mm 0 m/S 735 mmHg 58%
    18:00 +23°C° 0.1 mm 0 m/S 735 mmHg 67%
    19:00 +21°C° 0.1 mm 0 m/S 735 mmHg 75%
    20:00 +20°C° 0.1 mm 0 m/S 735 mmHg 78%
    21:00 +21°C° 0.1 mm 1 m/S 735 mmHg 80%
    22:00 +20°C° 0.1 mm 1 m/S 736 mmHg 82%
    23:00 +19°C° 0 mm 1 m/S 736 mmHg 84%

    20 Juli, Samstag

    Zeit Temperatur Niederschläge Wind Luftdruck Luftfeuchtigkeit
    00:00 +19°C° 0 mm 1 m/S 736 mmHg 86%
    01:00 +18°C° 0 mm 1 m/S 736 mmHg 87%
    02:00 +18°C° 0 mm 1 m/S 736 mmHg 88%
    03:00 +18°C° 0 mm 1 m/S 736 mmHg 88%
    04:00 +18°C° 0 mm 1 m/S 736 mmHg 89%
    05:00 +19°C° 0 mm 1 m/S 736 mmHg 86%
    06:00 +21°C° 0 mm 1 m/S 736 mmHg 83%
    07:00 +20°C° 0 mm 0 m/S 736 mmHg 80%
    08:00 +22°C° 0 mm 0 m/S 737 mmHg 71%
    09:00 +27°C° 0 mm 1 m/S 737 mmHg 63%
    10:00 +29°C° 0 mm 1 m/S 737 mmHg 54%
    11:00 +30°C° 0 mm 1 m/S 737 mmHg 52%
    12:00 +30°C° 0 mm 2 m/S 736 mmHg 51%
    13:00 +31°C° 0 mm 2 m/S 736 mmHg 50%
    14:00 +31°C° 0.1 mm 2 m/S 736 mmHg 51%
    15:00 +31°C° 0.1 mm 2 m/S 736 mmHg 52%
    16:00 +31°C° 0.1 mm 2 m/S 735 mmHg 53%
    17:00 +29°C° 0.1 mm 2 m/S 736 mmHg 60%
    18:00 +27°C° 0.1 mm 1 m/S 736 mmHg 68%
    19:00 +25°C° 0.1 mm 1 m/S 736 mmHg 75%
    20:00 +24°C° 0.2 mm 1 m/S 736 mmHg 79%
    21:00 +23°C° 0.2 mm 1 m/S 736 mmHg 82%
    22:00 +21°C° 0.2 mm 2 m/S 737 mmHg 86%
    23:00 +20°C° 0.1 mm 2 m/S 737 mmHg 87%

    21 Juli, Sonntag

    Zeit Temperatur Niederschläge Wind Luftdruck Luftfeuchtigkeit
    00:00 +20°C° 0.1 mm 2 m/S 737 mmHg 89%
    01:00 +19°C° 0.1 mm 2 m/S 737 mmHg 91%
    02:00 +19°C° 0 mm 2 m/S 737 mmHg 91%
    03:00 +18°C° 0 mm 2 m/S 737 mmHg 91%
    04:00 +19°C° 0 mm 1 m/S 737 mmHg 91%
    05:00 +20°C° 0 mm 1 m/S 737 mmHg 88%
    06:00 +21°C° 0 mm 1 m/S 737 mmHg 84%
    07:00 +22°C° 0 mm 1 m/S 738 mmHg 81%
    08:00 +24°C° 0 mm 2 m/S 738 mmHg 72%
    09:00 +26°C° 0 mm 3 m/S 738 mmHg 63%
    10:00 +28°C° 0 mm 3 m/S 738 mmHg 55%
    11:00 +29°C° 0 mm 3 m/S 738 mmHg 52%
    12:00 +30°C° 0 mm 3 m/S 738 mmHg 49%
    13:00 +30°C° 0 mm 4 m/S 738 mmHg 47%
    14:00 +30°C° 0 mm 4 m/S 738 mmHg 48%
    15:00 +30°C° 0 mm 3 m/S 738 mmHg 50%
    16:00 +30°C° 0 mm 3 m/S 738 mmHg 51%
    17:00 +28°C° 0.1 mm 3 m/S 738 mmHg 60%
    18:00 +26°C° 0.1 mm 3 m/S 739 mmHg 70%
    19:00 +25°C° 0.1 mm 3 m/S 739 mmHg 79%
    20:00 +23°C° 0.3 mm 2 m/S 739 mmHg 82%
    21:00 +21°C° 0.3 mm 2 m/S 739 mmHg 86%
    22:00 +20°C° 0.3 mm 2 m/S 740 mmHg 90%
    23:00 +20°C° 0 mm 2 m/S 740 mmHg 90%

    22 Juli, Montag

    Zeit Temperatur Niederschläge Wind Luftdruck Luftfeuchtigkeit
    00:00 +20°C° 0 mm 1 m/S 740 mmHg 91%
    01:00 +20°C° 0 mm 1 m/S 740 mmHg 92%
    02:00 +19°C° 0 mm 1 m/S 740 mmHg 93%
    03:00 +19°C° 0 mm 1 m/S 740 mmHg 93%
    04:00 +19°C° 0 mm 1 m/S 740 mmHg 94%
    05:00 +20°C° 0 mm 1 m/S 740 mmHg 91%
    06:00 +21°C° 0 mm 1 m/S 740 mmHg 89%
    07:00 +22°C° 0 mm 1 m/S 741 mmHg 86%
    08:00 +24°C° 0.1 mm 1 m/S 741 mmHg 77%
    09:00 +25°C° 0.1 mm 1 m/S 741 mmHg 69%
    10:00 +27°C° 0.1 mm 1 m/S 741 mmHg 60%
    11:00 +28°C° 0 mm 1 m/S 740 mmHg 56%
    12:00 +28°C° 0 mm 1 m/S 740 mmHg 52%
    13:00 +29°C° 0 mm 1 m/S 740 mmHg 48%
    14:00 +29°C° 0 mm 1 m/S 739 mmHg 48%
    15:00 +29°C° 0 mm 1 m/S 739 mmHg 48%
    16:00 +29°C° 0 mm 1 m/S 739 mmHg 47%
    17:00 +27°C° 0 mm 1 m/S 739 mmHg 56%
    18:00 +26°C° 0 mm 1 m/S 739 mmHg 64%
    19:00 +24°C° 0 mm 1 m/S 738 mmHg 73%
    20:00 +23°C° 0 mm 1 m/S 739 mmHg 75%
    21:00 +21°C° 0 mm 1 m/S 739 mmHg 78%
    22:00 +20°C° 0 mm 1 m/S 739 mmHg 80%
    23:00 +20°C° 0 mm 1 m/S 739 mmHg 82%
    Mehr zeigen